TimeAKDT,TemperatureF,Dew PointF,Humidity,Sea Level PressureIn,VisibilityMPH,Wind Direction,Wind SpeedMPH,Gust SpeedMPH,PrecipitationIn,Events,Conditions,WindDirDegrees,DateUTC
12:16 AM,19.4,14.0,80,30.11,10.0,East,3.5,-,N/A,,Clear,80,2012-10-08 08:16:00
12:36 AM,19.4,14.0,80,30.10,10.0,NE,3.5,-,N/A,,Clear,50,2012-10-08 08:36:00
12:56 AM,17.6,15.8,93,30.10,10.0,NNE,4.6,-,N/A,,Clear,30,2012-10-08 08:56:00
1:16 AM,17.6,15.8,93,30.11,10.0,NE,3.5,-,N/A,,Clear,40,2012-10-08 09:16:00
1:36 AM,17.6,15.8,93,30.11,10.0,East,3.5,-,N/A,,Clear,100,2012-10-08 09:36:00
1:56 AM,17.6,15.8,93,30.10,10.0,Calm,Calm,-,N/A,,Clear,0,2012-10-08 09:56:00
2:16 AM,17.6,15.8,93,30.10,10.0,Calm,Calm,-,N/A,,Clear,0,2012-10-08 10:16:00
2:36 AM,15.8,15.8,100,30.10,10.0,ENE,3.5,-,N/A,,Clear,60,2012-10-08 10:36:00
2:56 AM,17.6,15.8,93,30.10,10.0,NE,3.5,-,N/A,,Clear,50,2012-10-08 10:56:00
3:16 AM,17.6,15.8,93,30.10,10.0,ESE,3.5,-,N/A,,Clear,110,2012-10-08 11:16:00
3:36 AM,17.6,15.8,93,30.10,10.0,Calm,Calm,-,N/A,,Clear,0,2012-10-08 11:36:00
3:56 AM,17.6,15.8,93,30.10,10.0,East,3.5,-,N/A,,Clear,100,2012-10-08 11:56:00
4:16 AM,17.6,14.0,86,30.10,10.0,ENE,3.5,-,N/A,,Clear,70,2012-10-08 12:16:00
4:36 AM,17.6,15.8,93,30.10,10.0,Calm,Calm,-,N/A,,Clear,0,2012-10-08 12:36:00
4:56 AM,17.6,14.0,86,30.10,10.0,Calm,Calm,-,N/A,,Clear,0,2012-10-08 12:56:00
5:16 AM,17.6,15.8,93,30.10,10.0,ENE,3.5,-,N/A,,Clear,60,2012-10-08 13:16:00
5:36 AM,17.6,15.8,93,30.10,10.0,East,3.5,-,N/A,,Clear,100,2012-10-08 13:36:00
5:56 AM,17.6,15.8,93,30.10,10.0,East,4.6,-,N/A,,Clear,80,2012-10-08 13:56:00
6:16 AM,17.6,14.0,86,30.10,10.0,Calm,Calm,-,N/A,,Clear,0,2012-10-08 14:16:00
6:36 AM,17.6,15.8,93,30.09,10.0,Calm,Calm,-,N/A,,Clear,0,2012-10-08 14:36:00
6:56 AM,15.8,14.0,93,30.09,10.0,NNE,3.5,-,N/A,,Clear,30,2012-10-08 14:56:00
7:16 AM,17.6,15.8,93,30.10,10.0,Calm,Calm,-,N/A,,Clear,0,2012-10-08 15:16:00
7:36 AM,15.8,15.8,100,30.09,10.0,NNE,4.6,-,N/A,,Clear,20,2012-10-08 15:36:00
7:56 AM,15.8,15.8,100,30.09,10.0,NNE,5.8,-,N/A,,Mostly Cloudy,20,2012-10-08 15:56:00
8:16 AM,15.8,14.0,93,30.09,10.0,North,4.6,-,N/A,,Mostly Cloudy,360,2012-10-08 16:16:00
8:36 AM,15.8,14.0,93,30.09,10.0,North,5.8,-,N/A,,Mostly Cloudy,10,2012-10-08 16:36:00
8:56 AM,15.8,14.0,93,30.09,10.0,Calm,Calm,-,N/A,,Mostly Cloudy,0,2012-10-08 16:56:00
9:16 AM,17.6,15.8,93,30.10,10.0,NNE,4.6,-,N/A,,Overcast,20,2012-10-08 17:16:00
9:36 AM,17.6,14.0,86,30.10,10.0,Calm,Calm,-,N/A,,Overcast,0,2012-10-08 17:36:00
9:56 AM,17.6,14.0,86,30.09,10.0,NNE,5.8,-,N/A,,Mostly Cloudy,20,2012-10-08 17:56:00
10:16 AM,19.4,17.6,93,30.10,10.0,Calm,Calm,-,N/A,,Scattered Clouds,0,2012-10-08 18:16:00
10:36 AM,19.4,15.8,86,30.09,10.0,Calm,Calm,-,N/A,,Mostly Cloudy,0,2012-10-08 18:36:00
10:56 AM,21.2,15.8,80,30.10,10.0,Calm,Calm,-,N/A,,Partly Cloudy,0,2012-10-08 18:56:00
11:16 AM,23.0,17.6,80,30.10,10.0,Calm,Calm,-,N/A,,Mostly Cloudy,0,2012-10-08 19:16:00
11:36 AM,24.8,19.4,80,30.10,10.0,Calm,Calm,-,N/A,,Partly Cloudy,0,2012-10-08 19:36:00
11:56 AM,26.6,19.4,74,30.10,10.0,East,3.5,-,N/A,,Clear,100,2012-10-08 19:56:00
12:16 PM,26.6,19.4,74,30.10,10.0,ENE,4.6,-,N/A,,Clear,70,2012-10-08 20:16:00
12:36 PM,26.6,19.4,74,30.10,10.0,Calm,Calm,-,N/A,,Clear,0,2012-10-08 20:36:00
12:56 PM,28.4,19.4,69,30.11,10.0,ENE,3.5,-,N/A,,Clear,70,2012-10-08 20:56:00
1:16 PM,28.4,19.4,69,30.12,10.0,East,4.6,-,N/A,,Clear,90,2012-10-08 21:16:00
1:36 PM,28.4,19.4,69,30.12,10.0,Calm,Calm,-,N/A,,Clear,0,2012-10-08 21:36:00
1:56 PM,30.2,19.4,64,30.12,10.0,Calm,Calm,-,N/A,,Clear,0,2012-10-08 21:56:00
2:16 PM,30.2,19.4,64,30.13,10.0,Calm,Calm,-,N/A,,Clear,0,2012-10-08 22:16:00
2:36 PM,30.2,19.4,64,30.13,10.0,Calm,Calm,-,N/A,,Clear,0,2012-10-08 22:36:00
2:56 PM,30.2,19.4,64,30.13,10.0,Calm,Calm,-,N/A,,Clear,0,2012-10-08 22:56:00
3:16 PM,32.0,19.4,60,30.14,10.0,Calm,Calm,-,N/A,,Clear,0,2012-10-08 23:16:00
3:36 PM,32.0,19.4,60,30.14,10.0,Calm,Calm,-,N/A,,Clear,0,2012-10-08 23:36:00
3:56 PM,33.8,19.4,56,30.14,10.0,Calm,Calm,-,N/A,,Partly Cloudy,0,2012-10-08 23:56:00
4:16 PM,33.8,17.6,52,30.15,10.0,Calm,Calm,-,N/A,,Partly Cloudy,0,2012-10-09 00:16:00
4:36 PM,33.8,19.4,56,30.15,10.0,Calm,Calm,-,N/A,,Mostly Cloudy,0,2012-10-09 00:36:00
4:56 PM,35.6,17.6,48,30.15,10.0,Calm,Calm,-,N/A,,Mostly Cloudy,0,2012-10-09 00:56:00
5:16 PM,35.6,17.6,48,30.16,10.0,Calm,Calm,-,N/A,,Partly Cloudy,0,2012-10-09 01:16:00
5:56 PM,33.8,15.8,48,30.17,10.0,WNW,3.5,-,N/A,,Clear,300,2012-10-09 01:56:00
6:16 PM,32.0,14.0,48,30.18,10.0,NW,4.6,-,N/A,,Scattered Clouds,310,2012-10-09 02:16:00
6:36 PM,30.2,15.8,55,30.18,10.0,NNW,5.8,-,N/A,,Overcast,340,2012-10-09 02:36:00
6:56 PM,30.2,14.0,51,30.19,10.0,NW,3.5,-,N/A,,Scattered Clouds,320,2012-10-09 02:56:00
7:16 PM,30.2,15.8,55,30.20,10.0,NW,3.5,-,N/A,,Mostly Cloudy,310,2012-10-09 03:16:00
7:36 PM,30.2,15.8,55,30.20,10.0,Calm,Calm,-,N/A,,Overcast,0,2012-10-09 03:36:00
7:56 PM,30.2,17.6,60,30.21,10.0,Calm,Calm,-,N/A,,Overcast,0,2012-10-09 03:56:00
8:16 PM,30.2,17.6,60,30.22,10.0,Calm,Calm,-,N/A,,Overcast,0,2012-10-09 04:16:00
8:36 PM,28.4,19.4,69,30.23,10.0,SSE,3.5,-,N/A,,Overcast,150,2012-10-09 04:36:00
8:56 PM,28.4,19.4,69,30.24,10.0,SSE,3.5,-,N/A,,Overcast,150,2012-10-09 04:56:00
9:16 PM,28.4,17.6,64,30.25,10.0,Calm,Calm,-,N/A,,Overcast,0,2012-10-09 05:16:00
9:36 PM,30.2,14.0,51,30.26,10.0,North,10.4,-,N/A,,Overcast,360,2012-10-09 05:36:00
9:56 PM,28.4,14.0,55,30.27,10.0,NNE,9.2,-,N/A,,Scattered Clouds,30,2012-10-09 05:56:00
10:16 PM,28.4,12.2,51,30.28,10.0,North,9.2,-,N/A,,Clear,360,2012-10-09 06:16:00
10:36 PM,28.4,10.4,47,30.29,10.0,North,9.2,-,N/A,,Partly Cloudy,360,2012-10-09 06:36:00
10:56 PM,28.4,10.4,47,30.30,10.0,North,11.5,-,N/A,,Partly Cloudy,360,2012-10-09 06:56:00
11:16 PM,26.6,10.4,51,30.30,10.0,North,11.5,-,N/A,,Clear,360,2012-10-09 07:16:00
11:36 PM,26.6,10.4,51,30.31,10.0,North,9.2,-,N/A,,Clear,360,2012-10-09 07:36:00
11:56 PM,24.8,10.4,54,30.32,10.0,North,8.1,-,N/A,,Clear,360,2012-10-09 07:56:00